Weather History for KVTI - March, 2012

Change the Weather History Date:

Tuesday, March 6, 2012

  Actual Average Record
Temperature  
Mean Temperature 51 °F -  
Max Temperature 69 °F 41 °F 73 °F (2005)
Min Temperature 33 °F 22 °F -11 °F (1960)
Degree Days  
Heating Degree Days 14    
Growing Degree Days 1 (Base 50)    
Moisture  
Dew Point 33 °F    
Average Humidity 54    
Maximum Humidity 75    
Minimum Humidity 28    
Precipitation  
Precipitation 0.00 in - - ()
Sea Level Pressure  
Sea Level Pressure 29.78 in    
Wind  
Wind Speed 17 mph (South)    
Max Wind Speed 33 mph    
Max Gust Speed 39 mph    
Visibility 10 miles    
Events      
Averages and records for this station are not official NWS values.
T = Trace of Precipitation, MM = Missing Value Source: NWS Daily Summary

Daily Weather History Graph

Daily Weather History Graph

Search for Another Location

Airport or City:

Trip Planner

Search our weather history database for the weather conditions in past years. The results will help you decide how hot, cold, wet, or windy it might be!

Date:

Astronomy

Mar. 06, 2012 Rise Set
Actual Time 6:34 AM CST 6:04 PM CST
Civil Twilight 6:06 AM CST 6:32 PM CST
Nautical Twilight 5:34 AM CST 7:05 PM CST
Astronomical Twilight 5:01 AM CST 7:37 PM CST
Moon 4:30 PM CST (3/6) 5:11 AM CST (3/6)
Length of Visible Light 12h 26m
Length of Day
11h 30m
Waxing Gibbous, 96% of the Moon is Illuminated
Mar 6
Waxing Gibbous
Mar 8
Full
Mar 14
Last Quarter
Mar 22
New
Mar 30
First Quarter

Hourly Weather History & Observations

Time (CST) Temp. Windchill Dew Point Humidity Pressure Visibility Wind Dir Wind Speed Gust Speed Precip Events Conditions
12:15 AM 33.8 °F 23.9 °F 24.8 °F 70% 29.98 in 10.0 mi SSE 15.0 mph 24.2 mph N/A   Clear
12:35 AM 33.8 °F 23.9 °F 24.8 °F 70% 29.97 in 10.0 mi SSE 15.0 mph 23.0 mph N/A   Clear
12:55 AM 33.8 °F 23.5 °F 24.8 °F 70% 29.96 in 10.0 mi SSE 16.1 mph 21.9 mph N/A   Clear
1:15 AM 33.8 °F 23.9 °F 24.8 °F 70% 29.95 in 10.0 mi SSE 15.0 mph 20.7 mph N/A   Clear
1:35 AM 33.8 °F 23.5 °F 24.8 °F 70% 29.95 in 10.0 mi SSE 16.1 mph 20.7 mph N/A   Clear
1:55 AM 33.8 °F 24.8 °F 24.8 °F 70% 29.94 in 10.0 mi SSE 12.7 mph - N/A   Clear
2:15 AM 33.8 °F 25.8 °F 24.8 °F 70% 29.93 in 10.0 mi SE 10.4 mph 19.6 mph N/A   Clear
2:35 AM 33.8 °F 23.5 °F 26.6 °F 75% 29.91 in 10.0 mi SSE 16.1 mph 20.7 mph N/A   Clear
2:55 AM 33.8 °F 23.2 °F 26.6 °F 75% 29.90 in 10.0 mi SSE 17.3 mph 20.7 mph N/A   Clear
3:15 AM 33.8 °F 23.2 °F 26.6 °F 75% 29.89 in 10.0 mi SSE 17.3 mph 21.9 mph N/A   Clear
3:35 AM 33.8 °F 23.9 °F 24.8 °F 70% 29.87 in 10.0 mi SSE 15.0 mph 23.0 mph N/A   Clear
3:55 AM 33.8 °F 23.5 °F 26.6 °F 75% 29.86 in 10.0 mi SSE 16.1 mph - N/A   Clear
4:15 AM 33.8 °F 23.5 °F 26.6 °F 75% 29.85 in 10.0 mi SSE 16.1 mph 20.7 mph N/A   Clear
4:35 AM 33.8 °F 23.9 °F 26.6 °F 75% 29.85 in 10.0 mi SSE 15.0 mph - N/A   Clear
4:55 AM 33.8 °F 23.9 °F 26.6 °F 75% 29.83 in 10.0 mi SSE 15.0 mph 23.0 mph N/A   Clear
5:15 AM 35.6 °F 25.9 °F 26.6 °F 70% 29.82 in 10.0 mi SSE 16.1 mph 23.0 mph N/A   Clear
5:35 AM 35.6 °F 26.2 °F 28.4 °F 75% 29.82 in 10.0 mi SSE 15.0 mph 21.9 mph N/A   Clear
5:55 AM 35.6 °F 26.2 °F 28.4 °F 75% 29.81 in 10.0 mi SSE 15.0 mph - N/A   Clear
6:55 AM 35.6 °F 26.2 °F 28.4 °F 75% 29.80 in 10.0 mi SSE 15.0 mph - N/A   Clear
7:15 AM 35.6 °F 26.2 °F 28.4 °F 75% 29.80 in 10.0 mi SSE 15.0 mph - N/A   Clear
7:35 AM 37.4 °F 28.2 °F 30.2 °F 75% 29.79 in 10.0 mi SSE 16.1 mph 21.9 mph N/A   Clear
7:55 AM 37.4 °F 27.8 °F 30.2 °F 75% 29.79 in 10.0 mi SSE 17.3 mph 21.9 mph N/A   Clear
8:15 AM 41.0 °F 32.2 °F 30.2 °F 65% 29.78 in 10.0 mi SSE 18.4 mph 25.3 mph N/A   Clear
8:35 AM 42.8 °F 34.8 °F 32.0 °F 66% 29.78 in 10.0 mi South 17.3 mph 24.2 mph N/A   Clear
8:55 AM 44.6 °F 36.6 °F 32.0 °F 61% 29.78 in 10.0 mi SSE 19.6 mph 23.0 mph N/A   Clear
9:15 AM 50.0 °F - 33.8 °F 54% 29.77 in 10.0 mi South 13.8 mph 23.0 mph N/A   Clear
9:35 AM 50.0 °F - 33.8 °F 54% 29.77 in 10.0 mi South 15.0 mph 23.0 mph N/A   Clear
9:55 AM 51.8 °F - 35.6 °F 54% 29.76 in 10.0 mi South 18.4 mph 24.2 mph N/A   Clear
10:15 AM 53.6 °F - 35.6 °F 51% 29.76 in 10.0 mi South 17.3 mph 23.0 mph N/A   Clear
10:35 AM 55.4 °F - 37.4 °F 51% 29.76 in 10.0 mi South 18.4 mph 23.0 mph N/A   Clear
10:55 AM 59.0 °F - 37.4 °F 45% 29.75 in 10.0 mi South 20.7 mph 29.9 mph N/A   Clear
11:15 AM 60.8 °F - 39.2 °F 45% 29.74 in 10.0 mi SSW 19.6 mph 32.2 mph N/A   Clear
11:35 AM 60.8 °F - 37.4 °F 42% 29.73 in 10.0 mi SSW 26.5 mph 39.1 mph N/A   Clear
11:55 AM 62.6 °F - 37.4 °F 39% 29.72 in 10.0 mi SSW 31.1 mph 38.0 mph N/A   Clear
12:15 PM 64.4 °F - 37.4 °F 37% 29.72 in 10.0 mi SSW 33.4 mph 39.1 mph N/A   Clear
12:35 PM 66.2 °F - 39.2 °F 37% 29.72 in 10.0 mi SSW 29.9 mph 36.8 mph N/A   Clear
12:55 PM 68.0 °F - 41.0 °F 37% 29.70 in 10.0 mi SSW 27.6 mph 35.7 mph N/A   Clear
1:15 PM 69.8 °F - 41.0 °F 35% 29.70 in 10.0 mi SSW 24.2 mph 34.5 mph N/A   Clear
1:35 PM 69.8 °F - 39.2 °F 33% 29.69 in 10.0 mi South 25.3 mph 38.0 mph N/A   Clear
1:55 PM 69.8 °F - 37.4 °F 31% 29.68 in 10.0 mi South 26.5 mph 36.8 mph N/A   Clear
2:15 PM 69.8 °F - 39.2 °F 33% 29.69 in 10.0 mi South 21.9 mph 31.1 mph N/A   Clear
2:35 PM 69.8 °F - 37.4 °F 31% 29.69 in 10.0 mi South 21.9 mph 29.9 mph N/A   Clear
2:55 PM 69.8 °F - 37.4 °F 31% 29.68 in 10.0 mi South 26.5 mph 33.4 mph N/A   Clear
3:15 PM 69.8 °F - 37.4 °F 31% 29.68 in 10.0 mi SSW 24.2 mph 31.1 mph N/A   Clear
3:35 PM 69.8 °F - 37.4 °F 31% 29.68 in 10.0 mi South 25.3 mph 32.2 mph N/A   Clear
3:55 PM 69.8 °F - 35.6 °F 28% 29.69 in 10.0 mi South 25.3 mph 33.4 mph N/A   Clear
4:15 PM 69.8 °F - 35.6 °F 28% 29.69 in 10.0 mi South 15.0 mph 21.9 mph N/A   Clear
4:35 PM 69.8 °F - 37.4 °F 31% 29.69 in 10.0 mi South 12.7 mph 18.4 mph N/A   Clear
5:15 PM 66.2 °F - 37.4 °F 35% 29.69 in 10.0 mi South 16.1 mph - N/A   Clear
5:35 PM 64.4 °F - 37.4 °F 37% 29.69 in 10.0 mi South 12.7 mph 21.9 mph N/A   Clear
5:55 PM 62.6 °F - 37.4 °F 39% 29.69 in 10.0 mi South 15.0 mph - N/A   Clear
6:55 PM 59.0 °F - 37.4 °F 45% 29.71 in 10.0 mi South 11.5 mph 17.3 mph N/A   Clear
7:35 PM 59.0 °F - 39.2 °F 48% 29.73 in 10.0 mi SSE 9.2 mph - N/A   Clear
8:15 PM 55.4 °F - 37.4 °F 51% 29.74 in 10.0 mi South 10.4 mph - N/A   Clear
8:35 PM 55.4 °F - 35.6 °F 47% 29.75 in 10.0 mi SSE 6.9 mph - N/A   Clear
9:15 PM 53.6 °F - 35.6 °F 51% 29.75 in 10.0 mi SSE 6.9 mph - N/A   Clear
9:55 PM 51.8 °F - 37.4 °F 58% 29.76 in 10.0 mi SSE 8.1 mph - N/A   Clear
10:15 PM 51.8 °F - 35.6 °F 54% 29.77 in 10.0 mi SSE 6.9 mph - N/A   Clear
10:55 PM 51.8 °F - 35.6 °F 54% 29.78 in 10.0 mi SSE 8.1 mph - N/A   Overcast
11:15 PM 53.6 °F - 37.4 °F 54% 29.77 in 10.0 mi SSE 8.1 mph - N/A   Overcast
11:35 PM 53.6 °F - 37.4 °F 54% 29.77 in 10.0 mi SSE 11.5 mph - N/A   Overcast
11:55 PM 53.6 °F - 35.6 °F 51% 29.77 in 10.0 mi SSE 10.4 mph - N/A   Scattered Clouds